Tracking 25734 objects as of 26-May-2022
HD Live streaming from Space Station
objects crossing your sky now

ARIANE 1 DEB

Track ARIANE 1 DEB now!
10-day predictions


NORAD ID: 17429
Int'l Code: 1986-019FQ
Perigee: 683.1 km
Apogee: 775.9 km
Inclination: 99.0 °
Period: 99.2 minutes
Semi major axis: 7100 km
RCS: 0.0335 m2 (small)
Launch date: February 22, 1986
Source: France (FR)
Launch site: FRENCH GUIANA (FRGUI)

Note: This is SATELLITE DEBRIS
aabbcc
Your satellite tracking list
Your tracking list is empty




NASA's NSSDC Master Catalog

Two Line Element Set (TLE):
1 17429U 86019FQ  22145.78979843  .00005032  00000-0  12501-2 0  9997
2 17429  99.0421 247.8991 0065368 158.4596 201.9369 14.51001855854924
Source of the keplerian elements: AFSPC